Weather History for KF05 - September, 2013

Change the Weather History Date:

Thursday, September 12, 2013

  Actual Average (KLTS) Record (KLTS)
Temperature  
Mean Temperature 82 °F -  
Max Temperature 97 °F 86 °F 104 °F (2011)
Min Temperature 68 °F 64 °F 51 °F (2007)
Cooling Degree Days 18    
Growing Degree Days 32 (Base 50)    
Moisture  
Dew Point 56 °F    
Average Humidity 40    
Maximum Humidity 65    
Minimum Humidity 23    
Precipitation  
Precipitation 0.00 in - - ()
Sea Level Pressure  
Sea Level Pressure 30.06 in    
Wind  
Wind Speed 3 mph (SE)    
Max Wind Speed 13 mph    
Max Gust Speed 9 mph    
Visibility 10 miles    
Events      
Averages and records for this station are not official NWS values.
T = Trace of Precipitation, MM = Missing Value Source: NWS Daily Summary

Daily Weather History Graph

Daily Weather History Graph

Search for Another Location

Airport or City:

Trip Planner

Search our weather history database for the weather conditions in past years. The results will help you decide how hot, cold, wet, or windy it might be!

Date:

Astronomy

Sep. 12, 2013 Rise Set
Actual Time 7:18 AM CDT 7:47 PM CDT
Civil Twilight 6:53 AM CDT 8:12 PM CDT
Nautical Twilight 6:23 AM CDT 8:42 PM CDT
Astronomical Twilight 5:53 AM CDT 9:12 PM CDT
Moon 2:30 PM CDT (9/12) 12:03 AM CDT (9/12)
Length of Visible Light 13h 19m
Length of Day
12h 29m
Waxing Crescent, 50% of the Moon is Illuminated
Sep 12
Waxing Crescent
Sep 12
First Quarter
Sep 19
Full
Sep 26
Last Quarter
Oct 4
New

Hourly Weather History & Observations

Time (CDT) Temp. Heat Index Dew Point Humidity Pressure Visibility Wind Dir Wind Speed Gust Speed Precip Events Conditions
12:35 AM 79.9 °F - 54.1 °F 41% 30.07 in 10.0 mi SE 4.6 mph - N/A   Clear
12:55 AM 78.8 °F - 54.3 °F 43% 30.07 in 10.0 mi SE 5.8 mph - N/A   Clear
1:15 AM 77.7 °F - 54.5 °F 45% 30.07 in 10.0 mi SSE 3.5 mph - N/A   Clear
1:35 AM 77.0 °F - 55.2 °F 47% 30.07 in 10.0 mi SE 4.6 mph - N/A   Clear
1:55 AM 77.2 °F - 55.9 °F 48% 30.07 in 10.0 mi SE 4.6 mph - N/A   Clear
2:15 AM 77.0 °F - 56.7 °F 49% 30.07 in 10.0 mi SE 4.6 mph - N/A   Clear
2:35 AM 76.8 °F - 57.6 °F 51% 30.07 in 10.0 mi SSE 4.6 mph - N/A   Clear
2:55 AM 75.6 °F - 57.6 °F 53% 30.07 in 10.0 mi South 3.5 mph - N/A   Clear
3:15 AM 73.2 °F - 56.8 °F 56% 30.07 in 10.0 mi Calm Calm - N/A   Clear
3:35 AM 73.4 °F - 56.8 °F 56% 30.08 in 10.0 mi Calm Calm - N/A   Clear
3:55 AM 72.7 °F - 57.2 °F 58% 30.07 in 10.0 mi Calm Calm - N/A   Clear
4:15 AM 72.0 °F - 56.7 °F 58% 30.07 in 10.0 mi Calm Calm - N/A   Clear
4:35 AM 72.0 °F - 56.3 °F 58% 30.08 in 10.0 mi Calm Calm - N/A   Clear
4:55 AM 73.6 °F - 57.9 °F 58% 30.07 in 10.0 mi Calm Calm - N/A   Clear
5:15 AM 72.1 °F - 57.2 °F 59% 30.07 in 10.0 mi Calm Calm - N/A   Clear
5:35 AM 70.3 °F - 56.8 °F 62% 30.08 in 10.0 mi Calm Calm - N/A   Clear
5:55 AM 71.4 °F - 57.7 °F 62% 30.08 in 10.0 mi Calm Calm - N/A   Clear
6:15 AM 71.4 °F - 57.7 °F 62% 30.08 in 10.0 mi Calm Calm - N/A   Clear
6:35 AM 70.5 °F - 57.9 °F 64% 30.08 in 10.0 mi Calm Calm - N/A   Clear
6:55 AM 70.7 °F - 57.9 °F 64% 30.09 in 10.0 mi Calm Calm - N/A   Clear
7:15 AM 68.9 °F - 56.7 °F 65% 30.09 in 10.0 mi Calm Calm - N/A   Clear
7:59 AM 69.8 °F - 55.4 °F 60% 30.10 in 10.0 mi Calm Calm - N/A   Clear
8:15 AM 69.6 °F - 56.8 °F 64% 30.11 in 10.0 mi Calm Calm - N/A   Clear
8:35 AM 72.5 °F - 58.3 °F 61% 30.11 in 10.0 mi Calm Calm - N/A   Clear
9:15 AM 77.5 °F - 58.3 °F 51% 30.11 in 10.0 mi Calm Calm - N/A   Clear
9:35 AM 79.9 °F - 57.4 °F 46% 30.12 in 10.0 mi Calm Calm - N/A   Clear
9:55 AM 82.6 °F 82.0 °F 55.9 °F 40% 30.12 in 10.0 mi SSW 3.5 mph - N/A   Clear
10:15 AM 84.6 °F 83.4 °F 55.6 °F 37% 30.12 in 10.0 mi Calm Calm - N/A   Clear
10:35 AM 86.2 °F 84.9 °F 55.9 °F 36% 30.13 in 10.0 mi Calm Calm - N/A   Clear
10:55 AM 87.6 °F 86.1 °F 56.1 °F 34% 30.13 in 10.0 mi SSW 3.5 mph - N/A   Clear
11:15 AM 89.4 °F 87.5 °F 55.0 °F 31% 30.12 in 10.0 mi SW 3.5 mph - N/A   Clear
11:35 AM 90.0 °F 87.7 °F 54.0 °F 29% 30.12 in 10.0 mi Calm Calm - N/A   Clear
11:55 AM 91.0 °F 88.9 °F 54.7 °F 29% 30.12 in 10.0 mi Calm Calm - N/A   Clear
12:15 PM 91.8 °F 89.8 °F 55.2 °F 29% 30.11 in 10.0 mi South 3.5 mph - N/A   Clear
12:35 PM 92.3 °F 90.5 °F 55.4 °F 29% 30.11 in 10.0 mi SSW 5.8 mph - N/A   Clear
12:55 PM 92.8 °F 91.1 °F 55.8 °F 29% 30.10 in 10.0 mi East 3.5 mph - N/A   Clear
1:15 PM 93.9 °F 92.0 °F 55.6 °F 27% 30.09 in 10.0 mi South 3.5 mph - N/A   Clear
1:35 PM 94.3 °F 92.4 °F 55.6 °F 27% 30.08 in 10.0 mi Calm Calm - N/A   Scattered Clouds
1:55 PM 94.6 °F 92.9 °F 55.6 °F 27% 30.07 in 10.0 mi SSW 5.8 mph - N/A   Scattered Clouds
2:15 PM 95.5 °F 93.7 °F 55.6 °F 26% 30.06 in 10.0 mi ENE 5.8 mph - N/A   Clear
2:35 PM 96.1 °F 94.1 °F 54.9 °F 25% 30.05 in 10.0 mi South 10.4 mph - N/A   Scattered Clouds
2:55 PM 95.7 °F 93.7 °F 55.0 °F 25% 30.04 in 10.0 mi SE 10.4 mph - N/A   Scattered Clouds
3:15 PM 97.0 °F 95.0 °F 54.3 °F 24% 30.03 in 10.0 mi SW 6.9 mph - N/A   Scattered Clouds
3:35 PM 95.7 °F 93.7 °F 54.5 °F 25% 30.03 in 10.0 mi South 4.6 mph - N/A   Clear
3:55 PM 95.7 °F 93.7 °F 54.3 °F 25% 30.02 in 10.0 mi East 4.6 mph 9.2 mph N/A   Clear
4:15 PM 97.0 °F 94.6 °F 53.6 °F 23% 30.00 in 10.0 mi Calm Calm - N/A   Clear
4:35 PM 96.6 °F 94.5 °F 54.3 °F 24% 30.00 in 10.0 mi South 5.8 mph - N/A   Scattered Clouds
4:55 PM 96.4 °F 94.3 °F 53.8 °F 24% 29.99 in 10.0 mi SE 4.6 mph - N/A   Clear
5:15 PM 95.0 °F 92.7 °F 54.0 °F 25% 29.99 in 10.0 mi East 5.8 mph - N/A   Clear
5:35 PM 94.6 °F 92.3 °F 54.1 °F 25% 29.98 in 10.0 mi Calm Calm - N/A   Clear
5:55 PM 95.7 °F 93.7 °F 54.1 °F 25% 29.98 in 10.0 mi East 4.6 mph - N/A   Clear
6:15 PM 96.1 °F 93.8 °F 53.8 °F 24% 29.98 in 10.0 mi NE 4.6 mph - N/A   Clear
6:35 PM 95.0 °F - 52.5 °F 24% 29.98 in 10.0 mi ENE 3.5 mph - N/A   Clear
6:55 PM 94.3 °F 91.8 °F 53.2 °F 25% 29.98 in 10.0 mi Calm Calm - N/A   Clear
7:15 PM 93.0 °F 90.8 °F 54.5 °F 27% 29.98 in 10.0 mi SE 4.6 mph - N/A   Scattered Clouds
7:35 PM 92.8 °F 90.6 °F 54.5 °F 27% 29.99 in 10.0 mi ESE 4.6 mph - N/A   Clear
7:55 PM - - - N/A% 29.99 in 10.0 mi SE 3.5 mph - N/A   Unknown
8:15 PM 89.2 °F 87.5 °F 55.6 °F 32% 30.00 in 10.0 mi ESE 9.2 mph - N/A   Scattered Clouds
8:35 PM 88.5 °F 87.1 °F 56.5 °F 34% 30.01 in 10.0 mi ESE 9.2 mph - N/A   Clear
8:55 PM 88.2 °F 86.9 °F 57.2 °F 35% 30.02 in 10.0 mi East 12.7 mph - N/A   Clear
9:15 PM 88.5 °F 87.5 °F 58.1 °F 36% 30.03 in 10.0 mi East 9.2 mph - N/A   Clear
9:35 PM 88.0 °F 87.1 °F 58.5 °F 37% 30.03 in 10.0 mi East 8.1 mph - N/A   Clear
9:55 PM 87.1 °F 86.5 °F 59.0 °F 39% 30.04 in 10.0 mi ESE 5.8 mph - N/A   Scattered Clouds
10:15 PM 86.2 °F 85.6 °F 59.2 °F 40% 30.04 in 10.0 mi East 6.9 mph - N/A   Scattered Clouds
10:35 PM 85.5 °F 85.2 °F 59.7 °F 42% 30.04 in 10.0 mi East 6.9 mph - N/A   Scattered Clouds
10:55 PM 84.6 °F 84.4 °F 59.9 °F 43% 30.04 in 10.0 mi East 8.1 mph - N/A   Scattered Clouds
11:15 PM 83.8 °F 83.8 °F 59.9 °F 44% 30.04 in 10.0 mi ESE 6.9 mph - N/A   Scattered Clouds
11:35 PM 83.1 °F 83.3 °F 60.1 °F 46% 30.04 in 10.0 mi East 6.9 mph - N/A   Clear
11:55 PM 82.0 °F 82.5 °F 60.6 °F 48% 30.04 in 10.0 mi ESE 4.6 mph - N/A   Clear